![]() |
EMODnet Physics ERDDAP
Easier access to scientific data |
log in|
Brought to you by EMODnet Physics |
| Dataset Title: | NDBC - Collection of dew point temperature (DEWT) TimeSeries - IN SITU MultiPointTimeSeriesObservation
|
| Institution: | NDBC (Dataset ID: TS_DEWT_NDBC) |
| Information: | Summary
| License
| FGDC
| ISO 19115
| Metadata
| Background
| Subset
| Data Access Form
| Make a graph
|
| Name | Last modified | Size | Description | |
|---|---|---|---|---|
| Parent Directory | - | - | ||
| 45004_TS_DEWT_011991.nc | 26-Oct-2024 19:22 | 426937 | ||
| 45004_TS_DEWT_012010.nc | 26-Oct-2024 19:22 | 451237 | ||
| 45004_TS_DEWT_021991.nc | 26-Oct-2024 19:22 | 438846 | ||
| 45004_TS_DEWT_022010.nc | 26-Oct-2024 19:22 | 450971 | ||
| 45004_TS_DEWT_022012.nc | 26-Oct-2024 19:22 | 447011 | ||
| 45004_TS_DEWT_031991.nc | 26-Oct-2024 19:22 | 451388 | ||
| 45004_TS_DEWT_032010.nc | 26-Oct-2024 19:22 | 449127 | ||
| 45004_TS_DEWT_032012.nc | 26-Oct-2024 19:23 | 426752 | ||
| 45004_TS_DEWT_032013.nc | 26-Oct-2024 19:23 | 450884 | ||
| 45004_TS_DEWT_032016.nc | 26-Oct-2024 19:23 | 449877 | ||
| 45004_TS_DEWT_041980.nc | 26-Oct-2024 19:23 | 449552 | ||
| 45004_TS_DEWT_041983.nc | 26-Oct-2024 19:23 | 450317 | ||
| 45004_TS_DEWT_041987.nc | 26-Oct-2024 19:23 | 449027 | ||
| 45004_TS_DEWT_041988.nc | 26-Oct-2024 19:23 | 449835 | ||
| 45004_TS_DEWT_041989.nc | 26-Oct-2024 19:23 | 450475 | ||
| 45004_TS_DEWT_041990.nc | 26-Oct-2024 19:23 | 418945 | ||
| 45004_TS_DEWT_041991.nc | 26-Oct-2024 19:23 | 429844 | ||
| 45004_TS_DEWT_041992.nc | 26-Oct-2024 19:23 | 429829 | ||
| 45004_TS_DEWT_041993.nc | 26-Oct-2024 19:23 | 450095 | ||
| 45004_TS_DEWT_041995.nc | 26-Oct-2024 19:23 | 449594 | ||
| 45004_TS_DEWT_041996.nc | 26-Oct-2024 19:23 | 451336 | ||
| 45004_TS_DEWT_041997.nc | 26-Oct-2024 19:23 | 450241 | ||
| 45004_TS_DEWT_041998.nc | 26-Oct-2024 19:23 | 450335 | ||
| 45004_TS_DEWT_041999.nc | 26-Oct-2024 19:23 | 429834 | ||
| 45004_TS_DEWT_042000.nc | 26-Oct-2024 19:23 | 451762 | ||
| 45004_TS_DEWT_042001.nc | 26-Oct-2024 19:23 | 450104 | ||
| 45004_TS_DEWT_042002.nc | 26-Oct-2024 19:23 | 1267396 | ||
| 45004_TS_DEWT_042004.nc | 26-Oct-2024 19:24 | 429834 | ||
| 45004_TS_DEWT_042005.nc | 26-Oct-2024 19:24 | 1263728 | ||
| 45004_TS_DEWT_042006.nc | 26-Oct-2024 19:24 | 1144246 | ||
| 45004_TS_DEWT_042010.nc | 26-Oct-2024 19:24 | 1144170 | ||
| 45004_TS_DEWT_042012.nc | 26-Oct-2024 19:24 | 909320 | ||
| 45004_TS_DEWT_042013.nc | 26-Oct-2024 19:24 | 4623887 | ||
| 45004_TS_DEWT_042015.nc | 26-Oct-2024 19:24 | 3463448 | ||
| 45004_TS_DEWT_042016.nc | 26-Oct-2024 19:24 | 446205 | ||
| 45004_TS_DEWT_042022.nc | 26-Oct-2024 19:24 | 429156 | ||
| 45004_TS_DEWT_042023.nc | 26-Oct-2024 19:24 | 423547 | ||
| 45004_TS_DEWT_051980.nc | 26-Oct-2024 19:24 | 447146 | ||
| 45004_TS_DEWT_051981.nc | 26-Oct-2024 19:24 | 449284 | ||
| 45004_TS_DEWT_051982.nc | 26-Oct-2024 19:24 | 446711 | ||
| 45004_TS_DEWT_051983.nc | 26-Oct-2024 19:24 | 446813 | ||
| 45004_TS_DEWT_051987.nc | 26-Oct-2024 19:24 | 447159 | ||
| 45004_TS_DEWT_051988.nc | 26-Oct-2024 19:24 | 429157 | ||
| 45004_TS_DEWT_051989.nc | 26-Oct-2024 19:24 | 447176 | ||
| 45004_TS_DEWT_051990.nc | 26-Oct-2024 19:24 | 653107 | ||
| 45004_TS_DEWT_051991.nc | 26-Oct-2024 19:24 | 1020879 | ||
| 45004_TS_DEWT_051992.nc | 26-Oct-2024 19:24 | 429149 | ||
| 45004_TS_DEWT_051993.nc | 26-Oct-2024 19:24 | 1024690 | ||
| 45004_TS_DEWT_051994.nc | 26-Oct-2024 19:25 | 918157 | ||
| 45004_TS_DEWT_051995.nc | 26-Oct-2024 19:25 | 918137 | ||
| 45004_TS_DEWT_051996.nc | 26-Oct-2024 19:25 | 420755 | ||
| 45004_TS_DEWT_051997.nc | 26-Oct-2024 19:25 | 3088822 | ||
| 45004_TS_DEWT_051998.nc | 26-Oct-2024 19:25 | 4930850 | ||
| 45004_TS_DEWT_051999.nc | 26-Oct-2024 19:25 | 449661 | ||
| 45004_TS_DEWT_052000.nc | 26-Oct-2024 19:25 | 429836 | ||
| 45004_TS_DEWT_052001.nc | 26-Oct-2024 19:25 | 450023 | ||
| 45004_TS_DEWT_052002.nc | 26-Oct-2024 19:25 | 451398 | ||
| 45004_TS_DEWT_052003.nc | 26-Oct-2024 19:25 | 451009 | ||
| 45004_TS_DEWT_052004.nc | 26-Oct-2024 19:25 | 449375 | ||
| 45004_TS_DEWT_052005.nc | 26-Oct-2024 19:25 | 449564 | ||
| 45004_TS_DEWT_052006.nc | 26-Oct-2024 19:25 | 432032 | ||
| 45004_TS_DEWT_052007.nc | 26-Oct-2024 19:25 | 451064 | ||
| 45004_TS_DEWT_052008.nc | 26-Oct-2024 19:25 | 1255468 | ||
| 45004_TS_DEWT_052009.nc | 26-Oct-2024 19:25 | 1205389 | ||
| 45004_TS_DEWT_052010.nc | 26-Oct-2024 19:25 | 429560 | ||
| 45004_TS_DEWT_052012.nc | 26-Oct-2024 19:25 | 1007809 | ||
| 45004_TS_DEWT_052014.nc | 26-Oct-2024 19:25 | 1144031 | ||
| 45004_TS_DEWT_052015.nc | 26-Oct-2024 19:25 | 999495 | ||
| 45004_TS_DEWT_052016.nc | 26-Oct-2024 19:25 | 4273632 | ||
| 45004_TS_DEWT_052017.nc | 26-Oct-2024 19:26 | 3251870 | ||
| 45004_TS_DEWT_052018.nc | 26-Oct-2024 19:26 | 449361 | ||
| 45004_TS_DEWT_052019.nc | 26-Oct-2024 19:26 | 432716 | ||
| 45004_TS_DEWT_052022.nc | 26-Oct-2024 19:26 | 435238 | ||
| 45004_TS_DEWT_052023.nc | 26-Oct-2024 19:26 | 449130 | ||
| 45004_TS_DEWT_052025.nc | 01-Jun-2025 04:56 | 449925 | ||
| 45004_TS_DEWT_061980.nc | 26-Oct-2024 19:26 | 450802 | ||
| 45004_TS_DEWT_061981.nc | 26-Oct-2024 19:26 | 447087 | ||
| 45004_TS_DEWT_061982.nc | 26-Oct-2024 19:26 | 450090 | ||
| 45004_TS_DEWT_061983.nc | 26-Oct-2024 19:26 | 448821 | ||
| 45004_TS_DEWT_061984.nc | 26-Oct-2024 19:26 | 449754 | ||
| 45004_TS_DEWT_061986.nc | 26-Oct-2024 19:26 | 1113690 | ||
| 45004_TS_DEWT_061987.nc | 26-Oct-2024 19:26 | 1083959 | ||
| 45004_TS_DEWT_061988.nc | 26-Oct-2024 19:26 | 1105959 | ||
| 45004_TS_DEWT_061989.nc | 26-Oct-2024 19:26 | 1111491 | ||
| 45004_TS_DEWT_061990.nc | 26-Oct-2024 19:26 | 995742 | ||
| 45004_TS_DEWT_061991.nc | 26-Oct-2024 19:26 | 1109924 | ||
| 45004_TS_DEWT_061992.nc | 26-Oct-2024 19:26 | 4913553 | ||
| 45004_TS_DEWT_061993.nc | 26-Oct-2024 19:26 | 439757 | ||
| 45004_TS_DEWT_061994.nc | 26-Oct-2024 19:26 | 449532 | ||
| 45004_TS_DEWT_061995.nc | 26-Oct-2024 19:27 | 421952 | ||
| 45004_TS_DEWT_061996.nc | 26-Oct-2024 19:27 | 450799 | ||
| 45004_TS_DEWT_061997.nc | 26-Oct-2024 19:27 | 450768 | ||
| 45004_TS_DEWT_061998.nc | 26-Oct-2024 19:27 | 421208 | ||
| 45004_TS_DEWT_061999.nc | 26-Oct-2024 19:27 | 450873 | ||
| 45004_TS_DEWT_062000.nc | 26-Oct-2024 19:27 | 450283 | ||
| 45004_TS_DEWT_062001.nc | 26-Oct-2024 19:27 | 451453 | ||
| 45004_TS_DEWT_062002.nc | 26-Oct-2024 19:27 | 450042 | ||
| 45004_TS_DEWT_062003.nc | 26-Oct-2024 19:27 | 449460 | ||
| 45004_TS_DEWT_062004.nc | 26-Oct-2024 19:27 | 450660 | ||
| 45004_TS_DEWT_062005.nc | 26-Oct-2024 19:27 | 449921 | ||
| 45004_TS_DEWT_062006.nc | 26-Oct-2024 19:27 | 1264415 | ||
| 45004_TS_DEWT_062007.nc | 26-Oct-2024 19:27 | 1238282 | ||
| 45004_TS_DEWT_062008.nc | 26-Oct-2024 19:27 | 1269979 | ||
| 45004_TS_DEWT_062009.nc | 26-Oct-2024 19:27 | 1264281 | ||
| 45004_TS_DEWT_062010.nc | 26-Oct-2024 19:27 | 1144140 | ||
| 45004_TS_DEWT_062012.nc | 26-Oct-2024 19:27 | 1264264 | ||
| 45004_TS_DEWT_062014.nc | 26-Oct-2024 19:27 | 5556111 | ||
| 45004_TS_DEWT_062015.nc | 26-Oct-2024 19:27 | 449124 | ||
| 45004_TS_DEWT_062016.nc | 26-Oct-2024 19:27 | 449224 | ||
| 45004_TS_DEWT_062017.nc | 26-Oct-2024 19:28 | 429478 | ||
| 45004_TS_DEWT_062018.nc | 26-Oct-2024 19:28 | 449231 | ||
| 45004_TS_DEWT_062019.nc | 26-Oct-2024 19:28 | 447366 | ||
| 45004_TS_DEWT_062021.nc | 26-Oct-2024 19:28 | 449011 | ||
| 45004_TS_DEWT_062022.nc | 26-Oct-2024 19:28 | 449140 | ||
| 45004_TS_DEWT_062023.nc | 26-Oct-2024 19:28 | 449240 | ||
| 45004_TS_DEWT_062025.nc | 01-Jul-2025 05:00 | 450392 | ||
| 45004_TS_DEWT_071980.nc | 26-Oct-2024 19:28 | 449131 | ||
| 45004_TS_DEWT_071981.nc | 26-Oct-2024 19:28 | 450028 | ||
| 45004_TS_DEWT_071982.nc | 26-Oct-2024 19:28 | 450051 | ||
| 45004_TS_DEWT_071983.nc | 26-Oct-2024 19:28 | 450414 | ||
| 45004_TS_DEWT_071984.nc | 26-Oct-2024 19:28 | 1112495 | ||
| 45004_TS_DEWT_071985.nc | 26-Oct-2024 19:28 | 970095 | ||
| 45004_TS_DEWT_071986.nc | 26-Oct-2024 19:28 | 1113788 | ||
| 45004_TS_DEWT_071987.nc | 26-Oct-2024 19:28 | 1113821 | ||
| 45004_TS_DEWT_071988.nc | 26-Oct-2024 19:28 | 995674 | ||
| 45004_TS_DEWT_071989.nc | 26-Oct-2024 19:28 | 1110726 | ||
| 45004_TS_DEWT_071990.nc | 26-Oct-2024 19:28 | 5264536 | ||
| 45004_TS_DEWT_071991.nc | 26-Oct-2024 19:29 | 449771 | ||
| 45004_TS_DEWT_071992.nc | 26-Oct-2024 19:29 | 449907 | ||
| 45004_TS_DEWT_071993.nc | 26-Oct-2024 19:29 | 429839 | ||
| 45004_TS_DEWT_071994.nc | 26-Oct-2024 19:29 | 449824 | ||
| 45004_TS_DEWT_071995.nc | 26-Oct-2024 19:29 | 432513 | ||
| 45004_TS_DEWT_071996.nc | 26-Oct-2024 19:29 | 450229 | ||
| 45004_TS_DEWT_071997.nc | 26-Oct-2024 19:29 | 450639 | ||
| 45004_TS_DEWT_071998.nc | 26-Oct-2024 19:29 | 449811 | ||
| 45004_TS_DEWT_071999.nc | 26-Oct-2024 19:29 | 450128 | ||
| 45004_TS_DEWT_072000.nc | 26-Oct-2024 19:29 | 449576 | ||
| 45004_TS_DEWT_072001.nc | 26-Oct-2024 19:29 | 449971 | ||
| 45004_TS_DEWT_072002.nc | 26-Oct-2024 19:29 | 449778 | ||
| 45004_TS_DEWT_072003.nc | 26-Oct-2024 19:29 | 451350 | ||
| 45004_TS_DEWT_072004.nc | 26-Oct-2024 19:29 | 1265518 | ||
| 45004_TS_DEWT_072005.nc | 26-Oct-2024 19:29 | 1144110 | ||
| 45004_TS_DEWT_072006.nc | 26-Oct-2024 19:29 | 1107807 | ||
| 45004_TS_DEWT_072007.nc | 26-Oct-2024 19:29 | 1264883 | ||
| 45004_TS_DEWT_072008.nc | 26-Oct-2024 19:29 | 1144089 | ||
| 45004_TS_DEWT_072009.nc | 26-Oct-2024 19:30 | 1268973 | ||
| 45004_TS_DEWT_072010.nc | 26-Oct-2024 19:30 | 4563594 | ||
| 45004_TS_DEWT_072011.nc | 26-Oct-2024 19:30 | 449707 | ||
| 45004_TS_DEWT_072012.nc | 26-Oct-2024 19:30 | 450887 | ||
| 45004_TS_DEWT_072014.nc | 26-Oct-2024 19:30 | 429737 | ||
| 45004_TS_DEWT_072015.nc | 26-Oct-2024 19:30 | 449208 | ||
| 45004_TS_DEWT_072016.nc | 26-Oct-2024 19:30 | 429836 | ||
| 45004_TS_DEWT_072017.nc | 26-Oct-2024 19:30 | 449436 | ||
| 45004_TS_DEWT_072018.nc | 26-Oct-2024 19:30 | 439422 | ||
| 45004_TS_DEWT_072019.nc | 26-Oct-2024 19:30 | 451379 | ||
| 45004_TS_DEWT_072020.nc | 26-Oct-2024 19:30 | 450305 | ||
| 45004_TS_DEWT_072021.nc | 26-Oct-2024 19:30 | 450129 | ||
| 45004_TS_DEWT_072022.nc | 26-Oct-2024 19:30 | 442376 | ||
| 45004_TS_DEWT_072023.nc | 26-Oct-2024 19:30 | 450542 | ||
| 45004_TS_DEWT_072025.nc | 01-Aug-2025 05:16 | 451189 | ||
| 45004_TS_DEWT_081980.nc | 26-Oct-2024 19:30 | 1265408 | ||
| 45004_TS_DEWT_081981.nc | 26-Oct-2024 19:30 | 1144032 | ||
| 45004_TS_DEWT_081982.nc | 26-Oct-2024 19:30 | 1267324 | ||
| 45004_TS_DEWT_081983.nc | 26-Oct-2024 19:30 | 1242642 | ||
| 45004_TS_DEWT_081984.nc | 26-Oct-2024 19:30 | 1144128 | ||
| 45004_TS_DEWT_081985.nc | 26-Oct-2024 19:31 | 1266840 | ||
| 45004_TS_DEWT_081986.nc | 26-Oct-2024 19:31 | 5506841 | ||
| 45004_TS_DEWT_081987.nc | 26-Oct-2024 19:31 | 448772 | ||
| 45004_TS_DEWT_081988.nc | 26-Oct-2024 19:31 | 448947 | ||
| 45004_TS_DEWT_081989.nc | 26-Oct-2024 19:31 | 429495 | ||
| 45004_TS_DEWT_081990.nc | 26-Oct-2024 19:31 | 449059 | ||
| 45004_TS_DEWT_081991.nc | 26-Oct-2024 19:31 | 429492 | ||
| 45004_TS_DEWT_081992.nc | 26-Oct-2024 19:31 | 449091 | ||
| 45004_TS_DEWT_081993.nc | 26-Oct-2024 19:31 | 449436 | ||
| 45004_TS_DEWT_081994.nc | 26-Oct-2024 19:31 | 449911 | ||
| 45004_TS_DEWT_081995.nc | 26-Oct-2024 19:31 | 450321 | ||
| 45004_TS_DEWT_081996.nc | 26-Oct-2024 19:31 | 449010 | ||
| 45004_TS_DEWT_081997.nc | 26-Oct-2024 19:31 | 429495 | ||
| 45004_TS_DEWT_081998.nc | 26-Oct-2024 19:31 | 449121 | ||
| 45004_TS_DEWT_081999.nc | 26-Oct-2024 19:32 | 449345 | ||
| 45004_TS_DEWT_082000.nc | 26-Oct-2024 19:32 | 1113397 | ||
| 45004_TS_DEWT_082001.nc | 26-Oct-2024 19:32 | 995709 | ||
| 45004_TS_DEWT_082002.nc | 26-Oct-2024 19:32 | 1117000 | ||
| 45004_TS_DEWT_082003.nc | 26-Oct-2024 19:32 | 998842 | ||
| 45004_TS_DEWT_082004.nc | 26-Oct-2024 19:32 | 995729 | ||
| 45004_TS_DEWT_082005.nc | 26-Oct-2024 19:32 | 1112583 | ||
| 45004_TS_DEWT_082006.nc | 26-Oct-2024 19:32 | 4838993 | ||
| 45004_TS_DEWT_082007.nc | 26-Oct-2024 19:32 | 449794 | ||
| 45004_TS_DEWT_082008.nc | 26-Oct-2024 19:32 | 449875 | ||
| 45004_TS_DEWT_082009.nc | 26-Oct-2024 19:32 | 429836 | ||
| 45004_TS_DEWT_082010.nc | 26-Oct-2024 19:32 | 449905 | ||
| 45004_TS_DEWT_082011.nc | 26-Oct-2024 19:32 | 429835 | ||
| 45004_TS_DEWT_082012.nc | 26-Oct-2024 19:32 | 450258 | ||
| 45004_TS_DEWT_082014.nc | 26-Oct-2024 19:32 | 450315 | ||
| 45004_TS_DEWT_082015.nc | 26-Oct-2024 19:32 | 450912 | ||
| 45004_TS_DEWT_082016.nc | 26-Oct-2024 19:32 | 449287 | ||
| 45004_TS_DEWT_082017.nc | 26-Oct-2024 19:32 | 449878 | ||
| 45004_TS_DEWT_082018.nc | 26-Oct-2024 19:33 | 429830 | ||
| 45004_TS_DEWT_082019.nc | 26-Oct-2024 19:33 | 451581 | ||
| 45004_TS_DEWT_082020.nc | 26-Oct-2024 19:33 | 450448 | ||
| 45004_TS_DEWT_082021.nc | 26-Oct-2024 19:33 | 1268788 | ||
| 45004_TS_DEWT_082022.nc | 26-Oct-2024 19:33 | 1144136 | ||
| 45004_TS_DEWT_082023.nc | 26-Oct-2024 19:33 | 1265442 | ||
| 45004_TS_DEWT_082025.nc | 01-Sep-2025 05:02 | 1143996 | ||
| 45004_TS_DEWT_091980.nc | 26-Oct-2024 19:33 | 1144206 | ||
| 45004_TS_DEWT_091981.nc | 26-Oct-2024 19:33 | 1241469 | ||
| 45004_TS_DEWT_091982.nc | 26-Oct-2024 19:33 | 5545268 | ||
| 45004_TS_DEWT_091983.nc | 26-Oct-2024 19:33 | 450221 | ||
| 45004_TS_DEWT_091984.nc | 26-Oct-2024 19:33 | 449375 | ||
| 45004_TS_DEWT_091985.nc | 26-Oct-2024 19:33 | 429494 | ||
| 45004_TS_DEWT_091986.nc | 26-Oct-2024 19:33 | 449732 | ||
| 45004_TS_DEWT_091987.nc | 26-Oct-2024 19:33 | 429441 | ||
| 45004_TS_DEWT_091988.nc | 26-Oct-2024 19:33 | 449516 | ||
| 45004_TS_DEWT_091989.nc | 26-Oct-2024 19:33 | 449889 | ||
| 45004_TS_DEWT_091990.nc | 26-Oct-2024 19:33 | 449862 | ||
| 45004_TS_DEWT_091991.nc | 26-Oct-2024 19:33 | 438910 | ||
| 45004_TS_DEWT_091992.nc | 26-Oct-2024 19:33 | 448667 | ||
| 45004_TS_DEWT_091993.nc | 26-Oct-2024 19:34 | 429495 | ||
| 45004_TS_DEWT_091994.nc | 26-Oct-2024 19:34 | 448631 | ||
| 45004_TS_DEWT_091995.nc | 26-Oct-2024 19:34 | 449488 | ||
| 45004_TS_DEWT_091996.nc | 26-Oct-2024 19:34 | 1111569 | ||
| 45004_TS_DEWT_091997.nc | 26-Oct-2024 19:34 | 995583 | ||
| 45004_TS_DEWT_091998.nc | 26-Oct-2024 19:34 | 1108240 | ||
| 45004_TS_DEWT_091999.nc | 26-Oct-2024 19:34 | 995718 | ||
| 45004_TS_DEWT_092000.nc | 26-Oct-2024 19:34 | 995807 | ||
| 45004_TS_DEWT_092001.nc | 26-Oct-2024 19:34 | 995102 | ||
| 45004_TS_DEWT_092002.nc | 26-Oct-2024 19:34 | 5646597 | ||
| 45004_TS_DEWT_092003.nc | 26-Oct-2024 19:34 | 5574439 | ||
| 45004_TS_DEWT_092004.nc | 26-Oct-2024 19:34 | 450364 | ||
| 45004_TS_DEWT_092005.nc | 26-Oct-2024 19:34 | 432941 | ||
| 45004_TS_DEWT_092006.nc | 26-Oct-2024 19:34 | 429812 | ||
| 45004_TS_DEWT_092007.nc | 26-Oct-2024 19:34 | 446808 | ||
| 45004_TS_DEWT_092008.nc | 26-Oct-2024 19:34 | 429726 | ||
| 45004_TS_DEWT_092009.nc | 26-Oct-2024 19:34 | 450214 | ||
| 45004_TS_DEWT_092010.nc | 26-Oct-2024 19:34 | 449999 | ||
| 45004_TS_DEWT_092011.nc | 26-Oct-2024 19:34 | 449784 | ||
| 45004_TS_DEWT_092012.nc | 26-Oct-2024 19:34 | 433493 | ||
| 45004_TS_DEWT_092014.nc | 26-Oct-2024 19:35 | 450675 | ||
| 45004_TS_DEWT_092015.nc | 26-Oct-2024 19:35 | 429833 | ||
| 45004_TS_DEWT_092016.nc | 26-Oct-2024 19:35 | 445458 | ||
| 45004_TS_DEWT_092017.nc | 26-Oct-2024 19:35 | 451389 | ||
| 45004_TS_DEWT_092018.nc | 26-Oct-2024 19:35 | 1261213 | ||
| 45004_TS_DEWT_092019.nc | 26-Oct-2024 19:35 | 599158 | ||
| 45004_TS_DEWT_092020.nc | 26-Oct-2024 19:35 | 1265731 | ||
| 45004_TS_DEWT_092021.nc | 26-Oct-2024 19:35 | 1144194 | ||
| 45004_TS_DEWT_092022.nc | 26-Oct-2024 19:35 | 1144192 | ||
| 45004_TS_DEWT_092023.nc | 26-Oct-2024 19:35 | 915158 | ||
| 45004_TS_DEWT_092025.nc | 01-Oct-2025 04:35 | 5379379 | ||
| 45004_TS_DEWT_101980.nc | 26-Oct-2024 19:35 | 5461290 | ||
| 45004_TS_DEWT_101981.nc | 26-Oct-2024 19:35 | 427788 | ||
| 45004_TS_DEWT_101982.nc | 26-Oct-2024 19:35 | 451410 | ||
| 45004_TS_DEWT_101983.nc | 26-Oct-2024 19:35 | 450035 | ||
| 45004_TS_DEWT_101984.nc | 26-Oct-2024 19:35 | 449905 | ||
| 45004_TS_DEWT_101985.nc | 26-Oct-2024 19:35 | 449848 | ||
| 45004_TS_DEWT_101986.nc | 26-Oct-2024 19:35 | 449616 | ||
| 45004_TS_DEWT_101987.nc | 26-Oct-2024 19:35 | 429823 | ||
| 45004_TS_DEWT_101988.nc | 26-Oct-2024 19:35 | 429796 | ||
| 45004_TS_DEWT_101989.nc | 26-Oct-2024 19:35 | 450606 | ||
| 45004_TS_DEWT_101990.nc | 26-Oct-2024 19:36 | 452046 | ||
| 45004_TS_DEWT_101991.nc | 26-Oct-2024 19:36 | 450615 | ||
| 45004_TS_DEWT_101992.nc | 26-Oct-2024 19:36 | 1267098 | ||
| 45004_TS_DEWT_101993.nc | 26-Oct-2024 19:36 | 1264452 | ||
| 45004_TS_DEWT_101994.nc | 26-Oct-2024 19:36 | 1264583 | ||
| 45004_TS_DEWT_101995.nc | 26-Oct-2024 19:36 | 1267998 | ||
| 45004_TS_DEWT_101996.nc | 26-Oct-2024 19:36 | 1236709 | ||
| 45004_TS_DEWT_101997.nc | 26-Oct-2024 19:36 | 1154624 | ||
| 45004_TS_DEWT_101998.nc | 26-Oct-2024 19:36 | 999386 | ||
| 45004_TS_DEWT_101999.nc | 26-Oct-2024 19:36 | 4745547 | ||
| 45004_TS_DEWT_102000.nc | 26-Oct-2024 19:36 | 3683328 | ||
| 45004_TS_DEWT_102001.nc | 26-Oct-2024 19:36 | 418799 | ||
| 45004_TS_DEWT_102002.nc | 26-Oct-2024 19:36 | 448141 | ||
| 45004_TS_DEWT_102003.nc | 26-Oct-2024 19:36 | 447958 | ||
| 45004_TS_DEWT_102004.nc | 26-Oct-2024 19:36 | 446719 | ||
| 45004_TS_DEWT_102005.nc | 26-Oct-2024 19:36 | 447138 | ||
| 45004_TS_DEWT_102006.nc | 26-Oct-2024 19:36 | 429154 | ||
| 45004_TS_DEWT_102007.nc | 26-Oct-2024 19:37 | 428755 | ||
| 45004_TS_DEWT_102008.nc | 26-Oct-2024 19:37 | 446975 | ||
| 45004_TS_DEWT_102009.nc | 26-Oct-2024 19:37 | 447237 | ||
| 45004_TS_DEWT_102010.nc | 26-Oct-2024 19:37 | 448192 | ||
| 45004_TS_DEWT_102011.nc | 26-Oct-2024 19:37 | 1029173 | ||
| 45004_TS_DEWT_102012.nc | 26-Oct-2024 19:37 | 1027765 | ||
| 45004_TS_DEWT_102014.nc | 26-Oct-2024 19:37 | 1106748 | ||
| 45004_TS_DEWT_102015.nc | 26-Oct-2024 19:37 | 1026807 | ||
| 45004_TS_DEWT_102016.nc | 26-Oct-2024 19:37 | 937684 | ||
| 45004_TS_DEWT_102017.nc | 26-Oct-2024 19:37 | 917944 | ||
| 45004_TS_DEWT_102018.nc | 26-Oct-2024 19:37 | 424037 | ||
| 45004_TS_DEWT_102019.nc | 26-Oct-2024 19:37 | 3448002 | ||
| 45004_TS_DEWT_102020.nc | 26-Oct-2024 19:37 | 4925013 | ||
| 45004_TS_DEWT_102021.nc | 26-Oct-2024 19:37 | 450587 | ||
| 45004_TS_DEWT_102022.nc | 26-Oct-2024 19:37 | 450962 | ||
| 45004_TS_DEWT_102023.nc | 26-Oct-2024 19:37 | 450718 | ||
| 45004_TS_DEWT_102024.nc | 12-Jan-2025 20:46 | 449516 | ||
| 45004_TS_DEWT_102025.nc | 29-Oct-2025 06:31 | 422837 | ||
| 45004_TS_DEWT_111980.nc | 26-Oct-2024 19:37 | 421884 | ||
| 45004_TS_DEWT_111981.nc | 26-Oct-2024 19:38 | 449377 | ||
| 45004_TS_DEWT_111982.nc | 26-Oct-2024 19:38 | 451153 | ||
| 45004_TS_DEWT_111983.nc | 26-Oct-2024 19:38 | 449885 | ||
| 45004_TS_DEWT_111984.nc | 26-Oct-2024 19:38 | 1264026 | ||
| 45004_TS_DEWT_111985.nc | 26-Oct-2024 19:38 | 1264689 | ||
| 45004_TS_DEWT_111986.nc | 26-Oct-2024 19:38 | 1264041 | ||
| 45004_TS_DEWT_111987.nc | 26-Oct-2024 19:38 | 1008304 | ||
| 45004_TS_DEWT_111988.nc | 26-Oct-2024 19:38 | 1266313 | ||
| 45004_TS_DEWT_111989.nc | 26-Oct-2024 19:38 | 908698 | ||
| 45004_TS_DEWT_111990.nc | 26-Oct-2024 19:38 | 4401241 | ||
| 45004_TS_DEWT_111991.nc | 26-Oct-2024 19:38 | 3396457 | ||
| 45004_TS_DEWT_111992.nc | 26-Oct-2024 19:38 | 428422 | ||
| 45004_TS_DEWT_111993.nc | 26-Oct-2024 19:38 | 442589 | ||
| 45004_TS_DEWT_111996.nc | 26-Oct-2024 19:38 | 449137 | ||
| 45004_TS_DEWT_111999.nc | 26-Oct-2024 19:38 | 449856 | ||
| 45004_TS_DEWT_112000.nc | 26-Oct-2024 19:38 | 448624 | ||
| 45004_TS_DEWT_112001.nc | 26-Oct-2024 19:39 | 448080 | ||
| 45004_TS_DEWT_112002.nc | 26-Oct-2024 19:39 | 419047 | ||
| 45004_TS_DEWT_112003.nc | 26-Oct-2024 19:39 | 450060 | ||
| 45004_TS_DEWT_112004.nc | 26-Oct-2024 19:39 | 449022 | ||
| 45004_TS_DEWT_112005.nc | 26-Oct-2024 19:39 | 449410 | ||
| 45004_TS_DEWT_112006.nc | 26-Oct-2024 19:39 | 449928 | ||
| 45004_TS_DEWT_112007.nc | 26-Oct-2024 19:39 | 1110088 | ||
| 45004_TS_DEWT_112008.nc | 26-Oct-2024 19:39 | 1110926 | ||
| 45004_TS_DEWT_112009.nc | 26-Oct-2024 19:39 | 1116876 | ||
| 45004_TS_DEWT_112010.nc | 26-Oct-2024 19:39 | 1112906 | ||
| 45004_TS_DEWT_112011.nc | 26-Oct-2024 19:39 | 1097117 | ||
| 45004_TS_DEWT_112012.nc | 26-Oct-2024 19:39 | 1075919 | ||
| 45004_TS_DEWT_112014.nc | 26-Oct-2024 19:39 | 4909749 | ||
| 45004_TS_DEWT_112015.nc | 26-Oct-2024 19:39 | 447587 | ||
| 45004_TS_DEWT_112016.nc | 26-Oct-2024 19:39 | 446269 | ||
| 45004_TS_DEWT_112017.nc | 26-Oct-2024 19:40 | 449962 | ||
| 45004_TS_DEWT_112018.nc | 26-Oct-2024 19:40 | 449636 | ||
| 45004_TS_DEWT_112019.nc | 26-Oct-2024 19:40 | 450862 | ||
| 45004_TS_DEWT_112020.nc | 26-Oct-2024 19:40 | 450164 | ||
| 45004_TS_DEWT_112023.nc | 26-Oct-2024 19:40 | 451310 | ||
| 45004_TS_DEWT_112024.nc | 17-Jan-2025 14:31 | 451718 | ||
| 45004_TS_DEWT_112025.nc | 01-Dec-2025 08:12 | 451746 | ||
| 45004_TS_DEWT_121989.nc | 26-Oct-2024 19:40 | 450055 | ||
| 45004_TS_DEWT_121990.nc | 26-Oct-2024 19:40 | 630587 | ||
| 45004_TS_DEWT_122007.nc | 26-Oct-2024 19:40 | 1112099 | ||
| 45004_TS_DEWT_122009.nc | 26-Oct-2024 19:40 | 1265059 | ||
| 45004_TS_DEWT_122010.nc | 26-Oct-2024 19:40 | 1268131 | ||
| 45004_TS_DEWT_122016.nc | 26-Oct-2024 19:40 | 1263772 | ||
| 45004_TS_DEWT_122017.nc | 26-Oct-2024 19:41 | 1266078 | ||
| 45004_TS_DEWT_122024.nc | 18-Jan-2025 23:59 | 1263647 | ||
| 45004_TS_DEWT_122025.nc | 19-Jan-2026 01:37 | 5394930 | ||